Weather in Ale

Sweden     57°55′07″N   12°08′00″E
temp.,
°C
wind,
m/s
gust,
m/s
humid.,
%
clouds,
%
prec.,
mm/h
press.,
hPa
HPBL,
m
20 april, tue
tue2023:00+7ese29625 0.0 1023159
02:00+5se22615 0.0 102327
05:00+4ese11615 0.0 102211
08:00+8se12505 0.0 1021134
11:00+14ese12325 0.0 1019976
14:00+17wsw11275 0.0 10171790
17:00+14w44335 0.0 1015761
20:00+9wsw23530 0.0 101473
21 april, wed
wed2123:00+6ssw266591 0.0 1012115
02:00+6sw31181100 0.0 1010382
05:00+6wsw5129357 0.0 1008665
08:00+6wsw610715 0.0 10071161
11:00+7wsw7116057 0.1 10051580
14:00+9wsw6104110 0.3 10021996
17:00+5w61072100 0.3 10021233
20:00+4nw61485100 1.8 10001329
22 april, thu
thu2223:00+2nw71687100 0.8 10021451
02:00+2nnw71774100 1.8 10041527
05:00+1nnw71663100 0.1 10061553
08:00+2nnw61558100 0.1 10071726
11:00+5n61253100 0.3 10091918
14:00+7n51245100 0.4 10102308
17:00+9n6113692 0.0 10112369
20:00+5n613412 0.0 10131547
23 april, fri
fri2323:00+3n412450 0.0 1015708
02:00+3nnw613390 0.0 10151200
05:00+1nnw513460 0.0 1017945
08:00+3nnw512425 0.0 10181276
11:00+7nnw610260 0.0 10182365
14:00+9n5102291 0.0 10193086
17:00+10nw582898 0.0 10192775
20:00+5wnw4105017 0.0 1021647
24 april, sat
sat2423:00+2nw1267100 0.0 102129
02:00+2n2106719 0.0 1021261
05:00−2nnw2770100 0.0 1022148
08:00+2n49473 0.0 1023922
11:00+6n58335 0.0 10232239
14:00+8nne5828100 0.0 10232832
17:00+8nne572997 0.0 10232497
20:00+6n383655 0.0 1024948